Content
SEND FEEDBACK

Daily
Averages
Monthly
Summary
United States of America

LONE TREE, OREGON


Home > North America > United States > Oregon
Elevation: 2777 feet     Latitude: 45 20N     Longitude: 118 05W

WEATHER
 
SELECT A DAY
Number of Records: 413,707;   Date Range: 1/1/95 - 7/7/14
 
SHARE

PRINT THIS DATA

[ ← Previous Day ]
WEATHER ALMANAC - FEBRUARY 13, 2013
[ Next Day → ]
[ °C ]   °F
Weather ElementAverageHighLow
Temperature41.9 °F51.8 °F (2:15 pm)33.8 °F (5:35 am)
Dewpoint26.8 °F30.2 °F (8:35 am)24.8 °F (3:55 am)
Humidity56.2 %70 % (12:35 am)38 % (2:15 pm)
Barometer30.28 in30.36 in (11:55 pm)30.25 in (6:15 am)
Wind Speed9.4 mph23 mph (11:35 am)
Wind Gust29.9 mph (11:55 am)
Weather ElementAverage
Visibility10 mi
Wind DirectionSW (220.6 °)

Weather ElementTotal
Precipitation---
Heating Degree Days22.2 (Base 65)
Averaged from 71 records on February 13, 2013
WEATHER CONDITIONS BREAKOUT
WIND DIRECTION BREAKOUT
WEATHER BY HOUR - FEBRUARY 13, 2013
[ °C ]   °F
Local TimeTemperatureDewpointHumidityBarometerVisibilityWind DirectionWind SpeedGust SpeedPrecipitationEventsConditions
12:35 AM37.4 °F28.4 °F70 %30.29 in10.0 miCalmOvercast
12:55 AM37.4 °F28.4 °F70 %30.29 in10.0 miCalmOvercast
1:15 AM37.4 °F28.4 °F70 %30.29 in10.0 miCalmOvercast
1:35 AM37.4 °F26.6 °F65 %30.29 in10.0 miCalmOvercast
1:55 AM37.4 °F28.4 °F70 %30.29 in10.0 miCalmOvercast
2:15 AM39.2 °F28.4 °F65 %30.29 in10.0 miSSW (200°)8.1 mphOvercast
2:35 AM39.2 °F28.4 °F65 %30.29 in10.0 miCalmOvercast
2:55 AM37.4 °F26.6 °F65 %30.28 in10.0 miSSE (150°)4.6 mphOvercast
3:15 AM35.6 °F26.6 °F70 %30.28 in10.0 miCalmOvercast
3:35 AM35.6 °F26.6 °F70 %30.27 in10.0 miCalmMostly Cloudy
3:55 AM35.6 °F24.8 °F65 %30.27 in10.0 miCalmPartly Cloudy
4:15 AM35.6 °F24.8 °F65 %30.26 in10.0 miWNW (300°)4.6 mphScattered Clouds
4:35 AM35.6 °F24.8 °F65 %30.27 in10.0 miNorth (360°)3.5 mphPartly Cloudy
4:55 AM35.6 °F26.6 °F70 %30.27 in10.0 miNorth (360°)9.2 mphClear
5:15 AM35.6 °F24.8 °F65 %30.27 in10.0 miCalmMostly Cloudy
5:35 AM33.8 °F24.8 °F70 %30.27 in10.0 miESE (110°)5.8 mphOvercast
5:55 AM37.4 °F26.6 °F65 %30.26 in10.0 miNorth (360°)4.6 mphOvercast
6:15 AM37.4 °F28.4 °F70 %30.25 in10.0 miCalmScattered Clouds
6:35 AM37.4 °F26.6 °F65 %30.25 in10.0 miESE (120°)8.1 mphScattered Clouds
6:55 AM37.4 °F26.6 °F65 %30.25 in10.0 miESE (120°)5.8 mphMostly Cloudy
7:15 AM37.4 °F26.6 °F65 %30.26 in10.0 miESE (110°)3.5 mphPartly Cloudy
7:35 AM39.2 °F28.4 °F65 %30.26 in10.0 miEast (100°)6.9 mphPartly Cloudy
7:55 AM39.2 °F26.6 °F61 %30.26 in10.0 miCalmMostly Cloudy
8:15 AM41.0 °F28.4 °F61 %30.27 in10.0 miCalmOvercast
8:35 AM42.8 °F30.2 °F61 %30.28 in10.0 miNW (310°)9.2 mphScattered Clouds
8:55 AM44.6 °F28.4 °F53 %30.28 in10.0 miWNW (290°)9.2 mphScattered Clouds
9:15 AM44.6 °F28.4 °F53 %30.28 in10.0 miWNW (290°)10.4 mphMostly Cloudy
9:35 AM44.6 °F28.4 °F53 %30.28 in10.0 miWNW (300°)11.5 mph16.1 mphMostly Cloudy
9:55 AM46.4 °F28.4 °F50 %30.29 in10.0 miWNW (290°)10.4 mphOvercast
10:15 AM46.4 °F28.4 °F50 %30.29 in10.0 miWNW (290°)16.1 mph20.7 mphOvercast
10:35 AM48.2 °F30.2 °F50 %30.28 in10.0 miWNW (300°)12.7 mph20.7 mphMostly Cloudy
10:55 AM48.2 °F28.4 °F46 %30.29 in10.0 miNW (310°)12.7 mphMostly Cloudy
11:15 AM48.2 °F28.4 °F46 %30.29 in10.0 miNW (310°)17.3 mph23.0 mphMostly Cloudy
11:35 AM48.2 °F28.4 °F46 %30.28 in10.0 miNW (310°)23.0 mphPartly Cloudy
11:55 AM50.0 °F28.4 °F43 %30.27 in10.0 miWNW (300°)20.7 mph29.9 mphClear
12:15 PM50.0 °F28.4 °F43 %30.27 in10.0 miWNW (300°)21.9 mph29.9 mphClear
12:35 PM50.0 °F28.4 °F43 %30.26 in10.0 miNW (310°)20.7 mph25.3 mphClear
12:55 PM50.0 °F28.4 °F43 %30.27 in10.0 miWNW (300°)23.0 mph28.8 mphScattered Clouds
1:15 PM50.0 °F28.4 °F43 %30.26 in10.0 miWNW (290°)21.9 mph26.5 mphMostly Cloudy
1:35 PM50.0 °F28.4 °F43 %30.26 in10.0 miWNW (300°)21.9 mph26.5 mphPartly Cloudy
1:55 PM50.0 °F26.6 °F40 %30.26 in10.0 miNNW (330°)15.0 mph25.3 mphClear
2:15 PM51.8 °F26.6 °F38 %30.26 in10.0 miNW (310°)18.4 mph26.5 mphClear
2:35 PM50.0 °F26.6 °F40 %30.26 in10.0 miNW (320°)15.0 mphPartly Cloudy
2:55 PM51.8 °F26.6 °F38 %30.26 in10.0 miNW (310°)17.3 mph21.9 mphMostly Cloudy
3:15 PM50.0 °F26.6 °F40 %30.27 in10.0 miNW (310°)15.0 mph21.9 mphMostly Cloudy
3:35 PM48.2 °F24.8 °F40 %30.27 in10.0 miNW (320°)19.6 mph26.5 mphMostly Cloudy
3:55 PM48.2 °F24.8 °F40 %30.27 in10.0 miNW (320°)16.1 mphPartly Cloudy
4:15 PM46.4 °F24.8 °F43 %30.27 in10.0 miNNW (330°)17.3 mphClear
4:35 PM44.6 °F26.6 °F49 %30.27 in10.0 miNNW (330°)12.7 mphClear
4:55 PM44.6 °F24.8 °F46 %30.28 in10.0 miNNW (330°)12.7 mphClear
5:15 PM44.6 °F26.6 °F49 %30.28 in10.0 miNNW (330°)12.7 mphMostly Cloudy
5:35 PM42.8 °F26.6 °F53 %30.28 in10.0 miNNW (330°)11.5 mphOvercast
5:55 PM42.8 °F26.6 °F53 %30.28 in10.0 miNNW (330°)11.5 mph19.6 mphMostly Cloudy
6:15 PM41.0 °F26.6 °F57 %30.28 in10.0 miNorth (350°)8.1 mphClear
6:35 PM37.4 °F24.8 °F60 %30.29 in10.0 miENE (60°)6.9 mphClear
6:55 PM37.4 °F26.6 °F65 %30.29 in10.0 miENE (70°)3.5 mphClear
7:15 PM37.4 °F24.8 °F60 %30.29 in10.0 miSouth (190°)3.5 mphMostly Cloudy
7:35 PM35.6 °F24.8 °F65 %30.29 in10.0 miSW (220°)4.6 mphMostly Cloudy
7:55 PM37.4 °F24.8 °F60 %30.30 in10.0 miSW (220°)5.8 mphOvercast
8:15 PM37.4 °F26.6 °F65 %30.31 in10.0 miNW (320°)3.5 mphOvercast
8:35 PM39.2 °F28.4 °F65 %30.31 in10.0 miWNW (300°)8.1 mphMostly Cloudy
8:55 PM41.0 °F28.4 °F61 %30.31 in10.0 miNW (310°)17.3 mphPartly Cloudy
9:15 PM42.8 °F26.6 °F53 %30.32 in10.0 miNW (310°)17.3 mphPartly Cloudy
9:35 PM41.0 °F24.8 °F53 %30.32 in10.0 miNW (310°)16.1 mphPartly Cloudy
9:55 PM41.0 °F24.8 °F53 %30.33 in10.0 miNW (310°)13.8 mphClear
10:15 PM39.2 °F24.8 °F56 %30.33 in10.0 miNW (310°)8.1 mphPartly Cloudy
10:35 PM39.2 °F24.8 °F56 %30.34 in10.0 miNE (40°)5.8 mphMostly Cloudy
10:55 PM39.2 °F24.8 °F56 %30.35 in10.0 miNNE (30°)4.6 mphOvercast
11:15 PM39.2 °F26.6 °F61 %30.34 in10.0 miNNW (340°)3.5 mphOvercast
11:35 PM39.2 °F24.8 °F56 %30.35 in10.0 miNNW (330°)5.8 mphOvercast
11:55 PM39.2 °F24.8 °F56 %30.36 in10.0 miNorth (350°)8.1 mphOvercast
Hourly data recorded from KLGD, located miles away from Lone Tree, Oregon







STORIES FROM OUR PARTNERS